Time,TemperatureF,DewpointF,PressureIn,WindDirection,WindDirectionDegrees,WindSpeedMPH,WindSpeedGustMPH,Humidity,HourlyPrecipIn,Conditions,Clouds,dailyrainin,SoftwareType,DateUTC
2013-02-05 00:08:00,52.7,45.0,30.08,NNW,330,0.0,-999.0,75,-99.99,,,0.00,weatherlink.com 1.10,2013-02-05 05:08:00,
2013-02-05 00:22:00,52.5,45.0,30.07,NNW,330,0.0,-999.0,76,-99.99,,,0.00,weatherlink.com 1.10,2013-02-05 05:22:00,
2013-02-05 00:37:00,51.9,45.0,30.07,NNW,330,0.0,-999.0,77,-99.99,,,0.00,weatherlink.com 1.10,2013-02-05 05:37:00,
2013-02-05 00:53:00,51.1,45.0,30.07,NNW,330,0.0,-999.0,79,-99.99,,,0.00,weatherlink.com 1.10,2013-02-05 05:53:00,
2013-02-05 01:09:00,50.9,45.0,30.06,NNW,330,0.0,-999.0,81,-99.99,,,0.00,weatherlink.com 1.10,2013-02-05 06:09:00,
2013-02-05 01:22:00,50.7,45.0,30.06,NNW,330,0.0,-999.0,81,-99.99,,,0.00,weatherlink.com 1.10,2013-02-05 06:22:00,
2013-02-05 01:38:00,50.3,45.0,30.06,NNW,330,0.0,-999.0,83,-99.99,,,0.00,weatherlink.com 1.10,2013-02-05 06:38:00,
2013-02-05 01:53:00,49.8,45.0,30.05,NNW,330,0.0,-999.0,83,-99.99,,,0.00,weatherlink.com 1.10,2013-02-05 06:53:00,
2013-02-05 02:08:00,49.5,45.0,30.04,NNW,330,0.0,-999.0,85,-99.99,,,0.00,weatherlink.com 1.10,2013-02-05 07:08:00,
2013-02-05 02:23:00,49.4,45.0,30.03,NNW,330,0.0,-999.0,86,-99.99,,,0.00,weatherlink.com 1.10,2013-02-05 07:23:00,
2013-02-05 02:37:00,49.1,45.0,30.02,NNW,330,0.0,-999.0,87,-99.99,,,0.00,weatherlink.com 1.10,2013-02-05 07:37:00,
2013-02-05 02:53:00,48.5,45.0,30.00,NNW,330,0.0,-999.0,87,-99.99,,,0.00,weatherlink.com 1.10,2013-02-05 07:53:00,
2013-02-05 03:08:00,48.9,46.0,30.00,NNW,329,0.0,-999.0,88,-99.99,,,0.00,weatherlink.com 1.10,2013-02-05 08:08:00,
2013-02-05 03:23:00,49.8,47.0,30.01,NNW,330,0.0,-999.0,89,-99.99,,,0.00,weatherlink.com 1.10,2013-02-05 08:23:00,
2013-02-05 03:38:00,50.6,47.0,30.00,NNW,330,0.0,-999.0,86,-99.99,,,0.00,weatherlink.com 1.10,2013-02-05 08:38:00,
2013-02-05 03:52:00,50.1,46.0,30.00,NNW,330,0.0,-999.0,86,-99.99,,,0.00,weatherlink.com 1.10,2013-02-05 08:52:00,
2013-02-05 04:08:00,49.4,46.0,30.01,NNW,330,0.0,-999.0,87,-99.99,,,0.00,weatherlink.com 1.10,2013-02-05 09:08:00,
2013-02-05 04:23:00,48.5,45.0,30.02,NNW,330,0.0,-999.0,88,-99.99,,,0.00,weatherlink.com 1.10,2013-02-05 09:23:00,
2013-02-05 04:38:00,48.2,47.0,30.03,NNW,330,0.0,-999.0,94,-99.99,,,0.00,weatherlink.com 1.10,2013-02-05 09:38:00,
2013-02-05 04:53:00,49.7,47.0,30.03,NNW,332,0.0,-999.0,90,-99.99,,,0.00,weatherlink.com 1.10,2013-02-05 09:53:00,
2013-02-05 05:08:00,50.3,46.0,30.03,NNW,332,0.0,-999.0,86,-99.99,,,0.00,weatherlink.com 1.10,2013-02-05 10:08:00,
2013-02-05 05:23:00,49.9,46.0,30.04,NNW,332,0.0,-999.0,85,-99.99,,,0.00,weatherlink.com 1.10,2013-02-05 10:23:00,
2013-02-05 05:38:00,49.1,45.0,30.03,NNW,332,0.0,-999.0,85,-99.99,,,0.00,weatherlink.com 1.10,2013-02-05 10:38:00,
2013-02-05 05:53:00,48.2,44.0,30.04,NNW,332,0.0,-999.0,86,-99.99,,,0.00,weatherlink.com 1.10,2013-02-05 10:53:00,
2013-02-05 06:08:00,47.7,43.0,30.04,NNW,332,0.0,-999.0,84,-99.99,,,0.00,weatherlink.com 1.10,2013-02-05 11:08:00,
2013-02-05 06:24:00,48.4,43.0,30.05,NNW,332,0.0,-999.0,80,-99.99,,,0.00,weatherlink.com 1.10,2013-02-05 11:24:00,
2013-02-05 06:38:00,48.1,42.0,30.05,NNW,332,0.0,-999.0,79,-99.99,,,0.00,weatherlink.com 1.10,2013-02-05 11:38:00,
2013-02-05 06:54:00,47.7,42.0,30.06,NNW,332,0.0,-999.0,81,-99.99,,,0.00,weatherlink.com 1.10,2013-02-05 11:54:00,
2013-02-05 07:08:00,47.0,42.0,30.06,NNW,332,0.0,-999.0,84,-99.99,,,0.00,weatherlink.com 1.10,2013-02-05 12:08:00,
2013-02-05 07:23:00,46.8,43.0,30.07,NNW,332,0.0,-999.0,86,-99.99,,,0.00,weatherlink.com 1.10,2013-02-05 12:23:00,
2013-02-05 07:39:00,47.7,43.0,30.07,NNW,332,0.0,-999.0,85,-99.99,,,0.00,weatherlink.com 1.10,2013-02-05 12:39:00,
2013-02-05 07:52:00,49.3,44.0,30.08,NNW,332,0.0,-999.0,83,-99.99,,,0.00,weatherlink.com 1.10,2013-02-05 12:52:00,
2013-02-05 08:08:00,51.5,45.0,30.08,NNW,332,0.0,-999.0,78,-99.99,,,0.00,weatherlink.com 1.10,2013-02-05 13:08:00,
2013-02-05 08:38:00,55.1,43.0,30.09,North,5,4.0,-999.0,64,-99.99,,,0.00,weatherlink.com 1.10,2013-02-05 13:38:00,
2013-02-05 08:53:00,56.5,43.0,30.09,NE,39,4.0,-999.0,61,-99.99,,,0.00,weatherlink.com 1.10,2013-02-05 13:53:00,
2013-02-05 09:08:00,57.3,44.0,30.10,NNE,24,2.0,-999.0,62,-99.99,,,0.00,weatherlink.com 1.10,2013-02-05 14:08:00,
2013-02-05 09:23:00,58.7,46.0,30.11,NNE,26,3.0,-999.0,64,-99.99,,,0.00,weatherlink.com 1.10,2013-02-05 14:23:00,
2013-02-05 09:37:00,60.4,48.0,30.11,NNE,25,0.0,-999.0,64,-99.99,,,0.00,weatherlink.com 1.10,2013-02-05 14:37:00,
2013-02-05 09:52:00,61.4,48.0,30.11,NNE,30,0.0,-999.0,61,-99.99,,,0.00,weatherlink.com 1.10,2013-02-05 14:52:00,
2013-02-05 10:07:00,63.4,49.0,30.11,NNE,22,1.0,-999.0,60,-99.99,,,0.00,weatherlink.com 1.10,2013-02-05 15:07:00,
2013-02-05 10:22:00,65.4,49.0,30.11,NNE,22,0.0,-999.0,55,-99.99,,,0.00,weatherlink.com 1.10,2013-02-05 15:22:00,
2013-02-05 10:37:00,66.5,48.0,30.10,NNE,26,0.0,-999.0,51,-99.99,,,0.00,weatherlink.com 1.10,2013-02-05 15:37:00,
2013-02-05 10:52:00,67.6,48.0,30.10,NNW,331,1.0,-999.0,50,-99.99,,,0.00,weatherlink.com 1.10,2013-02-05 15:52:00,
2013-02-05 11:07:00,69.3,49.0,30.10,NNW,335,0.0,-999.0,49,-99.99,,,0.00,weatherlink.com 1.10,2013-02-05 16:07:00,
2013-02-05 11:22:00,70.1,49.0,30.10,South,178,0.0,-999.0,47,-99.99,,,0.00,weatherlink.com 1.10,2013-02-05 16:22:00,
2013-02-05 11:37:00,70.5,49.0,30.09,NW,319,2.0,-999.0,47,-99.99,,,0.00,weatherlink.com 1.10,2013-02-05 16:37:00,
2013-02-05 11:52:00,70.0,50.0,30.09,NW,323,2.0,-999.0,49,-99.99,,,0.00,weatherlink.com 1.10,2013-02-05 16:52:00,
2013-02-05 12:07:00,71.8,51.0,30.08,West,281,4.0,-999.0,49,-99.99,,,0.00,weatherlink.com 1.10,2013-02-05 17:07:00,
2013-02-05 12:23:00,72.6,52.0,30.08,NNW,329,0.0,-999.0,48,-99.99,,,0.00,weatherlink.com 1.10,2013-02-05 17:23:00,
2013-02-05 12:37:00,72.4,52.0,30.07,West,263,0.0,-999.0,49,-99.99,,,0.00,weatherlink.com 1.10,2013-02-05 17:37:00,
2013-02-05 12:52:00,73.0,53.0,30.06,WSW,255,5.0,-999.0,49,-99.99,,,0.00,weatherlink.com 1.10,2013-02-05 17:52:00,
2013-02-05 13:07:00,73.5,52.0,30.06,WSW,257,0.0,-999.0,48,-99.99,,,0.00,weatherlink.com 1.10,2013-02-05 18:07:00,
2013-02-05 13:22:00,73.9,52.0,30.05,SW,231,7.0,-999.0,47,-99.99,,,0.00,weatherlink.com 1.10,2013-02-05 18:22:00,
2013-02-05 13:37:00,73.6,52.0,30.04,WSW,241,6.0,-999.0,47,-99.99,,,0.00,weatherlink.com 1.10,2013-02-05 18:37:00,
2013-02-05 13:52:00,74.0,52.0,30.03,NNW,343,1.0,-999.0,47,-99.99,,,0.00,weatherlink.com 1.10,2013-02-05 18:52:00,
2013-02-05 14:07:00,74.2,53.0,30.03,SW,220,5.0,-999.0,47,-99.99,,,0.00,weatherlink.com 1.10,2013-02-05 19:07:00,
2013-02-05 14:22:00,75.3,52.0,30.02,NNW,332,4.0,-999.0,44,-99.99,,,0.00,weatherlink.com 1.10,2013-02-05 19:22:00,
2013-02-05 14:37:00,74.9,52.0,30.02,West,271,2.0,-999.0,45,-99.99,,,0.00,weatherlink.com 1.10,2013-02-05 19:37:00,
2013-02-05 14:52:00,74.6,52.0,30.01,WSW,238,5.0,-999.0,45,-99.99,,,0.00,weatherlink.com 1.10,2013-02-05 19:52:00,
2013-02-05 15:07:00,75.8,52.0,30.01,West,260,1.0,-999.0,43,-99.99,,,0.00,weatherlink.com 1.10,2013-02-05 20:07:00,
2013-02-05 15:22:00,76.1,52.0,30.01,WSW,244,2.0,-999.0,43,-99.99,,,0.00,weatherlink.com 1.10,2013-02-05 20:22:00,
2013-02-05 15:37:00,77.0,51.0,30.00,West,279,4.0,-999.0,41,-99.99,,,0.00,weatherlink.com 1.10,2013-02-05 20:37:00,
2013-02-05 15:52:00,76.6,50.0,30.01,WSW,238,4.0,-999.0,40,-99.99,,,0.00,weatherlink.com 1.10,2013-02-05 20:52:00,
2013-02-05 16:07:00,76.3,50.0,30.00,West,267,0.0,-999.0,40,-99.99,,,0.00,weatherlink.com 1.10,2013-02-05 21:07:00,
2013-02-05 16:22:00,76.4,50.0,30.00,South,180,1.0,-999.0,40,-99.99,,,0.00,weatherlink.com 1.10,2013-02-05 21:22:00,
2013-02-05 16:37:00,76.7,51.0,30.00,WSW,248,0.0,-999.0,41,-99.99,,,0.00,weatherlink.com 1.10,2013-02-05 21:37:00,
2013-02-05 16:52:00,76.8,51.0,30.01,NW,306,5.0,-999.0,40,-99.99,,,0.00,weatherlink.com 1.10,2013-02-05 21:52:00,
2013-02-05 17:07:00,76.4,50.0,30.00,WSW,253,2.0,-999.0,40,-99.99,,,0.00,weatherlink.com 1.10,2013-02-05 22:07:00,
2013-02-05 17:22:00,75.6,50.0,30.01,SW,235,0.0,-999.0,41,-99.99,,,0.00,weatherlink.com 1.10,2013-02-05 22:22:00,
2013-02-05 17:37:00,74.6,49.0,30.00,WSW,255,0.0,-999.0,41,-99.99,,,0.00,weatherlink.com 1.10,2013-02-05 22:37:00,
2013-02-05 17:52:00,74.0,50.0,30.00,SW,236,0.0,-999.0,43,-99.99,,,0.00,weatherlink.com 1.10,2013-02-05 22:52:00,
2013-02-05 18:07:00,73.5,50.0,30.00,SW,236,0.0,-999.0,44,-99.99,,,0.00,weatherlink.com 1.10,2013-02-05 23:07:00,
2013-02-05 18:22:00,72.4,51.0,30.00,SW,236,0.0,-999.0,47,-99.99,,,0.00,weatherlink.com 1.10,2013-02-05 23:22:00,
2013-02-05 18:37:00,71.1,52.0,30.00,SW,236,0.0,-999.0,51,-99.99,,,0.00,weatherlink.com 1.10,2013-02-05 23:37:00,
2013-02-05 18:52:00,70.0,51.0,30.01,SW,236,0.0,-999.0,51,-99.99,,,0.00,weatherlink.com 1.10,2013-02-05 23:52:00,
2013-02-05 19:07:00,69.9,51.0,30.01,SW,236,0.0,-999.0,51,-99.99,,,0.00,weatherlink.com 1.10,2013-02-06 00:07:00,
2013-02-05 19:23:00,69.2,52.0,30.02,SW,236,0.0,-999.0,54,-99.99,,,0.00,weatherlink.com 1.10,2013-02-06 00:23:00,
2013-02-05 19:37:00,68.7,52.0,30.02,SW,236,0.0,-999.0,55,-99.99,,,0.00,weatherlink.com 1.10,2013-02-06 00:37:00,
2013-02-05 19:52:00,67.6,52.0,30.02,SSE,168,0.0,-999.0,57,-99.99,,,0.00,weatherlink.com 1.10,2013-02-06 00:52:00,
2013-02-05 20:07:00,67.2,52.0,30.03,SSE,168,0.0,-999.0,59,-99.99,,,0.00,weatherlink.com 1.10,2013-02-06 01:07:00,
2013-02-05 20:22:00,66.9,52.0,30.03,SSE,168,0.0,-999.0,59,-99.99,,,0.00,weatherlink.com 1.10,2013-02-06 01:22:00,
2013-02-05 20:37:00,67.0,52.0,30.04,SSE,168,0.0,-999.0,59,-99.99,,,0.00,weatherlink.com 1.10,2013-02-06 01:37:00,
2013-02-05 20:52:00,66.4,52.0,30.04,WNW,298,4.0,-999.0,60,-99.99,,,0.00,weatherlink.com 1.10,2013-02-06 01:52:00,
2013-02-05 21:07:00,67.5,52.0,30.04,NW,321,0.0,-999.0,59,-99.99,,,0.00,weatherlink.com 1.10,2013-02-06 02:07:00,
2013-02-05 21:22:00,67.7,53.0,30.04,NW,317,0.0,-999.0,59,-99.99,,,0.00,weatherlink.com 1.10,2013-02-06 02:22:00,
2013-02-05 21:37:00,67.4,52.0,30.05,NE,50,0.0,-999.0,59,-99.99,,,0.00,weatherlink.com 1.10,2013-02-06 02:37:00,
2013-02-05 21:52:00,66.4,53.0,30.06,ENE,59,0.0,-999.0,62,-99.99,,,0.00,weatherlink.com 1.10,2013-02-06 02:52:00,
2013-02-05 22:07:00,65.6,53.0,30.06,ENE,59,0.0,-999.0,63,-99.99,,,0.00,weatherlink.com 1.10,2013-02-06 03:07:00,
2013-02-05 22:22:00,65.3,53.0,30.06,ENE,59,0.0,-999.0,64,-99.99,,,0.00,weatherlink.com 1.10,2013-02-06 03:22:00,
2013-02-05 22:37:00,64.1,53.0,30.06,ENE,59,0.0,-999.0,67,-99.99,,,0.00,weatherlink.com 1.10,2013-02-06 03:37:00,
2013-02-05 22:52:00,63.7,53.0,30.06,ENE,59,0.0,-999.0,68,-99.99,,,0.00,weatherlink.com 1.10,2013-02-06 03:52:00,
2013-02-05 23:07:00,63.4,53.0,30.07,ENE,59,0.0,-999.0,69,-99.99,,,0.00,weatherlink.com 1.10,2013-02-06 04:07:00,
2013-02-05 23:22:00,63.5,53.0,30.07,ENE,59,0.0,-999.0,68,-99.99,,,0.00,weatherlink.com 1.10,2013-02-06 04:22:00,
2013-02-05 23:37:00,64.0,53.0,30.07,ENE,61,2.0,-999.0,68,-99.99,,,0.00,weatherlink.com 1.10,2013-02-06 04:37:00,
2013-02-05 23:53:00,64.4,54.0,30.06,ENE,69,0.0,-999.0,69,-99.99,,,0.00,weatherlink.com 1.10,2013-02-06 04:53:00,